OPS 4682 DEB, 51505

Orbit data source: Space-Track

OPS 4682 DEB, 51505 is space debris in LEO originally from a launch on Sat, 03 Apr 1965 UTC launched from the Air Force Western Test Range (AFWTR). Debris objects in space refer to the collection of defunct objects orbiting the Earth. Examples of debris include non-operational satellites, rocket bodies, and fragments generated from explosions, collisions, or faulty payload assembly.

Loading next visibility...
Identifier
51505, 1965-027GR
Orbit
LEO
Country
Flag of USUS
Related business
Manufacturer
Unknown
Mission
Spacecraft
Bus & Motor
Unknown
Mass
Unknown
Launch date (UTC)
1965-04-03 (61 years ago)
Launch vehicle
Unknown
Launch site
Air Force Western Test Range (AFWTR)
Object type
Payload
Rocket body
Debris
Shape & HBR
Unknown shape, 1.1 m
Radar Cross Section
Medium (>0.1 m² and <1 m²)

Expand to show TLE details & history
Last TLE update: 17 hours ago

TLE from 17 hours ago
0 OPS 4682 DEB
1 51505U 65027GR  26263.59785297  .00000591  00000-0  19648-2 0  9992
2 51505  90.2513  14.1958 0031199  76.4832 283.9762 12.98962265358439
Epoch: 2026-09-20T14:20Z
TLE epoch observation values (Epoch: 2026-09-20T14:20:54.496Z)
Latitude
-0.00008°
Longitude
159.47899°
Altitude
1,263.346 km
Speed
7.226 km/s
True Right ascension
00h 56m 46s
True Declination
0° 00' 00"
Sunlit
Object was in full shadow at epoch
Visualization orbit readout
Latitude
Unknown
Longitude
Unknown
Altitude
Unknown
Speed
Unknown
Apparent Right ascension
Unknown
Apparent Declination
Unknown
Sunlit
N/A
Visualization observer readout
Local Sidereal Time
00:09:49
Azimuth
Unknown
Elevation
Unknown
Doppler factor
Unknown
Orbital elements
Apogee altitude
1,287.124 km
Perigee altitude
1,239.443 km
Semi-major axis
7,641.421 km
Eccentricity
0.00312
Inclination
90.2513°
RAAN
14.1958°
Arg. of periapsis
76.4832°
True anomaly
283.62894°
Mean anomaly
283.9762°
Eccentric anomaly
283.8026°
Mean motion
3.24924 °/min
Orbital period
110.8 mins
BSTAR
0.0019648
Loading maneuver chart data...
Computing Atmospheric mass density...
Loading historical data...
Loading historical data...
Loading historical data...
Loading historical data...
Loading historical data...
Loading historical data...
Loading historical data...

Documentation

Showing up to 5 results
|